RS33S (SXC3-215 VIZARD) (53386 NORAD) Tracking and Keplerian Element Data

This shows tracking and keplerian element data for the satellite.

Feedback or suggestion? Click here.




ElementValue
Catalog53386
NameRS33S (SXC3-215 VIZARD)
Epoch Orbit747
Epoch Day270.18683782
Epoch Year2022
RAAN171.3757
Inclination97.4304
Eccentricity0.0003608
Argument of Perigee293.3499
Mean Anonmoly214.8673
Mean Motion15.26434493
Decay Rate0.00012603
L11 53386U 22096S 22270.18683782 .00012603 00000+0 48618-3 0 9991
L22 53386 97.4304 171.3757 0003608 293.3499 214.8673 15.26434493 7471

Live tracking and technical data element details for RS33S (SXC3-215 VIZARD) (NORAD 53386). RS33S (SXC3-215 VIZARD) can be tracked NOW for your location showing map with azimuth and elevation plus other details from your city location.

Track the satellite on the map from your city or location and see movement details for azimuth, elevation, latitude, longitude, range, height, and movement on the map or in text.







IsCatalogInMostPopularTable: catalog: 53386, numindb: 3
Update: records affected: 1



GetName: 53386 RS33S (SXC3-215 VIZARD)

Hit Count: updated at: Thu, 29 Sep 2022 11:21:38 GMT